Weather in Kalachevo

Russia / Kemerovo Oblast     53°47′14″N   86°56′06″E
temp.,
°C
wind,
m/s
gust,
m/s
humid.,
%
clouds,
%
prec.,
mm/h
press.,
hPa
HPBL,
m
9 may, sun
sun901:00+12sw386833 0.4 1016152
04:00+10wsw388372 0.8 1016210
07:00+9wnw258599 1.0 1016272
10:00+11nnw456474 0.0 1016747
13:00+13nnw564939 0.0 10161526
16:00+12nnw674412 0.0 10161510
19:00+11nne66495 0.0 10171463
22:00+6n410570 0.0 1019493
10 may, mon
mon1001:00+5nne410635 0.0 1020355
04:00+3nne37763 0.0 1020180
07:00+4ne24705 0.0 1021166
10:00+10e46480 0.0 10211008
13:00+14e57340 0.0 10191658
16:00+16ene56335 0.0 10172023
19:00+14ene684217 0.0 10161148
22:00+8ene475860 0.0 1016177
11 may, tue
tue1101:00+6ne3764100 0.0 1015156
04:00+5nne3666100 0.0 1014110
07:00+6ne2765100 0.0 1013228
10:00+11ne4647100 0.0 1012798
13:00+15e3537100 0.0 10121596
16:00+17ene2433100 0.0 10112082
19:00+16ene234041 0.0 1012494
22:00+10nne345534 0.0 101363
12 may, wed
wed1201:00+8nnw346463 0.0 101466
04:00+6nnw237822 0.0 101458
07:00+7nnw257919 0.0 1015185
10:00+14nne46505 0.0 1014877
13:00+18n453387 0.0 10142804
16:00+18nne773499 0.0 10142479
19:00+16n694527 0.0 10151335
22:00+10n36625 0.0 1017127
13 may, thu
thu1301:00+8nnw22700 0.0 101831
04:00+6nw11762 0.0 101910
07:00+8n11670 0.0 102078
10:00+14nne12430 0.0 1019792
13:00+17nne24344 0.0 10182138
16:00+19s243196 0.0 10162487
19:00+17w584082 0.0 1016805
22:00+11sw3555100 0.0 101688